Orbital Elements at Epoch 2459200.5 (2020-Dec-17.0) TDB
Reference: JPL 19 (heliocentric ecliptic J2000)
Element | Value | Uncertainty (1-sigma) | Units |
e | .1396340079581838 | 6.3808e-08 | |
a | 2.848518245236892 | 1.792e-08 | au |
q | 2.450768225912451 | 1.8195e-07 | au |
i | 8.178879311255125 | 5.1668e-06 | deg |
node | 299.433064224785 | 3.9619e-05 | deg |
peri | 41.86612073325924 | 4.4701e-05 | deg |
M | 29.42473023573575 | 1.7332e-05 | deg |
tp | 2459056.971903777654 (2020-Jul-26.47190378) | 8.4729e-05 | TDB |
period | 1756.009799447272 4.81 | 1.657e-05 4.537e-08 | d yr |
n | .205010245451543 | 1.9346e-09 | deg/d |
Q | 3.246268264561331 | 2.0422e-08 | au |
|
| | Orbit Determination Parameters
Additional Information
|